User: anonymous   Login
Location: Unspecified
(0.0000°N, 0.0000°E)
Time: 13:01:55
(UTC+00:00)
Language:

WGS F2 (USA 204) - Orbit

View from above orbital plane
View from above orbital plane
View from above satellite
View from above satellite

Ground track
Ground track

The orbit data is extracted from the following two-line orbital elements,

1 34713U 09017A   17107.12238948 0.00000000  00000-0  00000-0 0    01
2 34713   0.0300 309.6252 0001458  71.7390 288.2983  1.00270000    05
Epoch (UTC): 17 April 2017 02:56:14
Eccentricity: 0.0001458
inclination: 0.0300°
perigee height: 35780 km
apogee height: 35793 km
right ascension of ascending node: 309.6252°
argument of perigee: 71.7390°
revolutions per day: 1.00270000
mean anomaly at epoch: 288.2983°
orbit number at epoch: 0

The dashed part of the orbit path shows where the satellite is in the earth's shadow,  

DLR